[[{"header":{"parameterUnit":"m.s-1","parameterCategory":1,"la1":30.2991,"la2":30.254,"lo1":-89.0895,"lo2":-89.0444,"dy":0.0017,"dx":0.0017,"nx":28,"ny":28,"refTime":"2025-08-23T21:00:00:Z","depth":0,"parameterNumber":2,"parameterNumberName":"U-component_of_WINDS"},"data":[0,0,0,0,0,0,0,0,0,0,0,0,0,0,0,0,0,0,0,0,0,0,0,0,0,0,0,0,0,0,0,0,0,0,0,0,0,0,0,0,0,0,0,0,0,0,0,0,0,0,0,0,0,0,0,0,0,0,2.7595,2.7597,0,2.7794,2.7796,2.7799,2.7791,2.7788,2.7785,2.7783,2.799,2.7998,2.8006,0,0,0,0,0,0,0,0,0,0,0,0,0,2.7212,2.7219,2.7595,2.7598,2.76,2.7794,2.7797,2.7799,2.7791,2.7788,2.7784,2.7781,2.7987,2.7997,2.8007,0,0,0,0,0,0,0,0,0,0,0,0,0,2.7391,2.7221,2.7595,2.7619,2.7624,2.7793,2.7797,2.78,2.7792,2.7788,2.7784,2.778,2.7984,2.7996,2.8008,2.8168,0,0,2.8045,2.8051,0,0,0,0,0,0,0,0,2.7381,2.7405,2.7613,2.7618,2.7623,2.7763,2.7737,2.7923,2.7793,2.7728,2.7782,2.7778,2.7918,2.7936,2.7982,2.8177,2.8186,2.8046,2.8054,2.8059,2.8063,0,0,0,0,0,0,0,2.7369,2.7397,2.7674,2.7616,2.7622,2.7622,2.7642,2.7773,2.7845,2.7734,2.7733,2.7757,2.792,2.7971,2.7987,2.8189,2.8046,2.8057,2.8065,2.8069,2.8526,2.853,0,0,0,0,0,0,2.735,2.7386,2.7668,2.768,2.7489,2.7632,2.7655,2.7723,2.7843,2.7857,2.776,2.7756,2.7952,2.7973,2.7994,2.8189,2.8059,2.807,2.8077,2.8521,2.8527,2.8532,0,0,0,0,0,0,2.7342,2.7376,2.766,2.7533,2.7569,2.7643,2.7719,2.7729,2.7779,2.7863,2.7876,2.7798,2.7949,2.7977,2.8124,2.8196,2.8076,2.8087,2.8515,2.8523,2.8529,2.858,0,0,0,0,0,0,2.7331,2.7373,2.7433,2.7535,2.7576,2.7786,2.7723,2.7736,2.78,2.7796,2.7902,2.7916,2.7948,2.8106,2.8137,2.8211,2.8097,2.8509,2.8518,2.8527,2.8572,2.8588,2.8602,0,0,0,0,0,2.7318,2.744,2.7436,2.747,2.7653,2.779,2.7813,2.7847,2.7805,2.7868,2.7922,2.7913,2.8183,2.8121,2.8155,2.8235,2.8505,2.8516,2.8526,2.8566,2.8585,2.8601,0,0,0,0,0,0,2.7347,2.7454,2.7451,2.761,2.7691,2.7788,2.7867,2.7866,2.7961,2.7954,2.7992,2.8016,2.8164,2.8214,2.8143,2.8396,2.8339,2.8357,2.8357,2.8376,2.8391,2.8376,2.8107,0,0,0,0,0,2.7372,2.7472,2.7561,2.7693,2.7733,2.7793,2.7854,2.7873,2.7958,2.7993,2.8057,2.8142,2.8246,2.8314,2.8414,2.8579,2.8603,2.8651,2.8665,2.8677,2.8693,2.8784,2.8807,2.8567,2.8567,2.8567,0,0,2.7425,2.7496,2.7557,2.7701,2.7765,2.787,2.7822,2.7935,2.8013,2.801,2.8153,2.8203,2.83,2.8457,2.8529,2.8503,2.8764,2.8691,2.8699,2.8709,2.8797,2.882,2.884,2.8575,2.8573,2.8572,0,0,2.7574,2.7637,2.7754,2.782,2.7918,2.7957,2.7985,2.8083,2.8116,2.8259,2.8259,2.8353,2.8532,2.8601,2.8659,2.8834,2.883,2.8866,2.8943,2.9032,2.9051,2.9068,2.9131,2.9153,2.8881,2.8881,2.8881,0,2.7628,2.7784,2.7815,2.7928,2.7992,2.7992,2.8112,2.8174,2.8301,2.8345,2.8314,2.8537,2.8603,2.8776,2.8818,2.8866,2.89,2.8854,2.9045,2.9062,2.9079,2.9139,2.9163,2.8885,2.8884,2.8884,2.8884,0,2.7845,2.7954,2.8037,2.8157,2.823,2.8346,2.8395,2.8466,2.8478,2.852,2.8667,2.8745,2.8861,2.8903,2.8917,2.9079,2.906,2.9037,2.8981,2.9105,2.9162,2.9186,2.889,2.8889,2.8888,2.8887,0,0,2.802,2.8155,2.8185,2.824,2.8348,2.8433,2.8549,2.8661,2.8721,2.8808,2.8907,2.9058,2.9037,2.9103,2.9124,2.9202,2.9336,2.9169,2.9172,2.9198,2.9521,2.9538,2.9564,2.9334,2.9338,2.9342,2.9513,0,2.8181,2.8386,2.8417,2.8597,2.8698,2.87,2.8801,2.8879,2.8922,2.9015,2.9062,2.9169,2.9132,2.9172,2.9249,2.9304,2.9402,2.9292,2.9428,2.9432,2.9404,2.9594,2.9613,2.977,2.9535,2.9539,2.9542,0,2.8397,2.8488,2.8678,2.8772,2.8816,2.8906,2.9011,2.91,2.9188,2.9214,2.9287,2.9299,2.9421,2.9359,2.9527,2.9452,2.9509,2.9544,2.9551,2.9566,2.9495,2.9615,2.9821,2.9845,2.9578,2.9575,2.9572,0,2.8506,2.8677,2.8812,2.8859,2.8972,2.9035,2.9085,2.9169,2.9235,2.9328,2.9371,2.9477,2.9535,2.9617,2.9658,2.9609,2.9824,2.9765,2.985,2.9849,2.9896,2.9892,3.0115,2.9932,2.9931,2.9931,2.993,0,2.8683,2.88,2.8863,2.8947,2.9077,2.9112,2.9241,2.929,2.9364,2.9458,2.9467,2.9555,2.9602,2.9698,2.9731,2.9866,2.9892,2.9917,2.9924,2.9917,2.9914,2.9955,2.9946,2.9937,2.9936,2.9934,2.9933,0,2.8828,2.8875,2.9023,2.9117,2.9143,2.9235,2.9316,2.9398,2.944,2.9559,2.9589,2.9655,2.9768,2.9816,2.9956,2.9977,3.0132,3.0131,3.0102,3.0105,3.0187,3.0179,3.0445,3.0482,3.0273,3.0275,3.0276,0,2.8938,2.9028,2.9131,2.9194,2.9245,2.9346,2.9413,2.9451,2.952,2.9627,2.9696,2.9809,2.9901,3.0082,3.0143,3.025,3.0252,3.0338,3.0269,3.0258,3.0254,3.0249,3.0258,3.0351,3.0353,3.0355,3.0356,0,2.913,2.9148,2.9243,2.9346,2.9425,2.9508,2.959,2.9641,2.9692,2.9769,2.9884,2.9955,3.0097,3.0209,3.0319,3.0372,3.0374,3.0377,3.0403,3.0396,3.0376,3.0389,3.0138,3.0372,3.037,3.0369,3.0368,3.0367,2.9262,2.9341,2.9426,2.9531,2.9596,2.9672,2.9753,2.9804,2.99,3.0017,3.0034,3.0157,3.0243,3.0391,3.0449,3.0546,3.0525,3.0561,3.0571,3.058,3.0585,3.0359,3.0566,3.0566,3.0566,3.0565,3.0565,0,2.9454,2.9508,2.9604,2.9717,2.98,2.9792,2.9882,2.9952,3.006,3.0139,3.023,3.0362,3.047,3.054,3.065,3.0715,3.0718,3.0742,3.0738,3.0751,3.0597,3.0565,3.0738,3.0738,3.0738,3.0738,3.0738,3.0737,2.9564,2.9698,2.9726,2.9893,2.9946,3.0066,3.0118,3.0188,3.0252,3.0398,3.0488,3.0532,3.0608,3.0723,3.0823,3.0841,3.0881,3.0907,3.0924,3.0779,3.0761,3.0744,3.0714,3.0915,3.0916,3.1069,3.107,3.1071]},{"header":{"parameterUnit":"m.s-1","parameterCategory":1,"la1":30.2991,"la2":30.254,"lo1":-89.0895,"lo2":-89.0444,"dy":0.0017,"dx":0.0017,"nx":28,"ny":28,"refTime":"2025-08-23T21:00:00:Z","depth":0,"parameterNumber":3,"parameterNumberName":"V-component_of_WINDS"},"data":[0,0,0,0,0,0,0,0,0,0,0,0,0,0,0,0,0,0,0,0,0,0,0,0,0,0,0,0,0,0,0,0,0,0,0,0,0,0,0,0,0,0,0,0,0,0,0,0,0,0,0,0,0,0,0,0,0,0,-1.7834,-1.7834,0,-1.7873,-1.7873,-1.7874,-1.7883,-1.7882,-1.7882,-1.7882,-1.7919,-1.7921,-1.7922,0,0,0,0,0,0,0,0,0,0,0,0,0,-1.7764,-1.7766,-1.7834,-1.7834,-1.7835,-1.7873,-1.7873,-1.7874,-1.7883,-1.7882,-1.7882,-1.7882,-1.7919,-1.7921,-1.7922,0,0,0,0,0,0,0,0,0,0,0,0,0,-1.7798,-1.7766,-1.7834,-1.7844,-1.7845,-1.7873,-1.7873,-1.7874,-1.7883,-1.7882,-1.7882,-1.7881,-1.7919,-1.792,-1.7922,-1.7942,0,0,-1.7928,-1.7929,0,0,0,0,0,0,0,0,-1.7796,-1.78,-1.7842,-1.7843,-1.7845,-1.7872,-1.7863,-1.7897,-1.7883,-1.7868,-1.7882,-1.7881,-1.7904,-1.7907,-1.7915,-1.7944,-1.7945,-1.7928,-1.7929,-1.793,-1.7931,0,0,0,0,0,0,0,-1.7794,-1.7799,-1.7849,-1.7842,-1.7844,-1.7845,-1.785,-1.7869,-1.7888,-1.787,-1.787,-1.7875,-1.7905,-1.7913,-1.7916,-1.7946,-1.7928,-1.793,-1.7931,-1.7932,-1.7991,-1.7992,0,0,0,0,0,0,-1.779,-1.7797,-1.7848,-1.785,-1.7819,-1.7847,-1.7852,-1.7864,-1.7888,-1.7891,-1.7875,-1.7875,-1.791,-1.7914,-1.7917,-1.7941,-1.793,-1.7932,-1.7933,-1.7991,-1.7992,-1.7992,0,0,0,0,0,0,-1.7788,-1.7794,-1.7846,-1.7824,-1.7831,-1.7849,-1.7862,-1.7865,-1.7874,-1.7892,-1.7895,-1.7881,-1.791,-1.7915,-1.7936,-1.7943,-1.7933,-1.7934,-1.799,-1.7991,-1.7992,-1.799,0,0,0,0,0,0,-1.7786,-1.7794,-1.7802,-1.7824,-1.7832,-1.7865,-1.7863,-1.7866,-1.7877,-1.7877,-1.7898,-1.7901,-1.791,-1.7933,-1.7938,-1.7945,-1.7936,-1.799,-1.7991,-1.7992,-1.7989,-1.799,-1.7991,0,0,0,0,0,-1.7784,-1.78,-1.7802,-1.7809,-1.7843,-1.7865,-1.7869,-1.788,-1.7878,-1.7886,-1.7897,-1.79,-1.7941,-1.7935,-1.794,-1.7949,-1.7989,-1.799,-1.7991,-1.7989,-1.799,-1.7991,0,0,0,0,0,0,-1.7777,-1.7803,-1.7806,-1.783,-1.7845,-1.7867,-1.7877,-1.7881,-1.7897,-1.7897,-1.7909,-1.7914,-1.7934,-1.7943,-1.7936,-1.7968,-1.7965,-1.7967,-1.7961,-1.7963,-1.7964,-1.7961,-1.7937,0,0,0,0,0,-1.7779,-1.7796,-1.7817,-1.7835,-1.7843,-1.7859,-1.7869,-1.7876,-1.7892,-1.7899,-1.7912,-1.7927,-1.7943,-1.7954,-1.797,-1.7991,-1.7995,-1.7999,-1.8,-1.8001,-1.8002,-1.8014,-1.8015,-1.7995,-1.7995,-1.7995,0,0,-1.7782,-1.7798,-1.7808,-1.7834,-1.7847,-1.7864,-1.7864,-1.7882,-1.7894,-1.7901,-1.7922,-1.7932,-1.7949,-1.797,-1.798,-1.7979,-1.8009,-1.8002,-1.8003,-1.8004,-1.8015,-1.8017,-1.8018,-1.7996,-1.7996,-1.7996,0,0,-1.7795,-1.7809,-1.7826,-1.7839,-1.7859,-1.7869,-1.7873,-1.7894,-1.7901,-1.7922,-1.7928,-1.7942,-1.797,-1.7982,-1.7992,-1.801,-1.8013,-1.8014,-1.8019,-1.803,-1.8031,-1.8033,-1.8038,-1.804,-1.8016,-1.8016,-1.8016,0,-1.7796,-1.7822,-1.7834,-1.7851,-1.7863,-1.7871,-1.7887,-1.7899,-1.7923,-1.793,-1.7928,-1.7963,-1.7976,-1.7999,-1.8004,-1.8012,-1.8016,-1.8012,-1.803,-1.8032,-1.8033,-1.8039,-1.8041,-1.8016,-1.8016,-1.8016,-1.8016,0,-1.7821,-1.7839,-1.785,-1.7873,-1.7886,-1.7903,-1.7917,-1.7928,-1.7934,-1.7944,-1.7964,-1.798,-1.7999,-1.8005,-1.8011,-1.8029,-1.8028,-1.8028,-1.8025,-1.8035,-1.804,-1.8043,-1.8016,-1.8016,-1.8016,-1.8016,0,0,-1.7832,-1.7862,-1.7865,-1.7876,-1.7898,-1.7911,-1.7928,-1.7947,-1.7956,-1.7972,-1.7986,-1.8009,-1.801,-1.8021,-1.8028,-1.8038,-1.805,-1.8037,-1.8037,-1.8038,-1.807,-1.8069,-1.8071,-1.8052,-1.8053,-1.8053,-1.8068,0,-1.7847,-1.7878,-1.789,-1.7914,-1.793,-1.7938,-1.7953,-1.7968,-1.7977,-1.7992,-1.8002,-1.8018,-1.8018,-1.8025,-1.8035,-1.8046,-1.8056,-1.8045,-1.8064,-1.8064,-1.8059,-1.8074,-1.8073,-1.8087,-1.807,-1.8071,-1.8071,0,-1.787,-1.7886,-1.7913,-1.7933,-1.794,-1.7953,-1.7971,-1.7985,-1.8001,-1.8008,-1.802,-1.8027,-1.8044,-1.804,-1.8063,-1.8055,-1.8063,-1.807,-1.8071,-1.8072,-1.8068,-1.8075,-1.8091,-1.8093,-1.8074,-1.8074,-1.8074,0,-1.7873,-1.7902,-1.7922,-1.7931,-1.7955,-1.7963,-1.7974,-1.799,-1.8001,-1.8016,-1.8023,-1.804,-1.8049,-1.8062,-1.8073,-1.8069,-1.8094,-1.8092,-1.8099,-1.8099,-1.8104,-1.8103,-1.8121,-1.811,-1.811,-1.811,-1.811,0,-1.7889,-1.7905,-1.7924,-1.7936,-1.7954,-1.7966,-1.7983,-1.7994,-1.8008,-1.8022,-1.8029,-1.8042,-1.8055,-1.8069,-1.8078,-1.8095,-1.8099,-1.8104,-1.8106,-1.8103,-1.8102,-1.8108,-1.8107,-1.8111,-1.8111,-1.8111,-1.811,0,-1.7896,-1.791,-1.7931,-1.7952,-1.7958,-1.797,-1.7987,-1.7999,-1.8009,-1.8026,-1.8031,-1.8047,-1.8063,-1.8075,-1.8097,-1.8102,-1.812,-1.8123,-1.8115,-1.8116,-1.8123,-1.8121,-1.8144,-1.8147,-1.8135,-1.8135,-1.8135,0,-1.7905,-1.7917,-1.7939,-1.7949,-1.796,-1.7976,-1.7987,-1.7999,-1.801,-1.803,-1.8039,-1.8056,-1.8071,-1.8097,-1.811,-1.8126,-1.8128,-1.8135,-1.8131,-1.8127,-1.8127,-1.8126,-1.8127,-1.8135,-1.8135,-1.8136,-1.8136,0,-1.7919,-1.7925,-1.7941,-1.7959,-1.7972,-1.7987,-1.8002,-1.8009,-1.8024,-1.8036,-1.8053,-1.8065,-1.8087,-1.8104,-1.8121,-1.8131,-1.8135,-1.8137,-1.8139,-1.8136,-1.8131,-1.8133,-1.8116,-1.8136,-1.8136,-1.8136,-1.8136,-1.8136,-1.7926,-1.7937,-1.7955,-1.7972,-1.7985,-1.7998,-1.801,-1.8022,-1.8037,-1.8056,-1.8063,-1.8081,-1.8096,-1.812,-1.813,-1.8144,-1.8144,-1.8147,-1.8148,-1.8149,-1.8148,-1.8129,-1.8147,-1.8147,-1.8147,-1.8147,-1.8147,0,-1.794,-1.7951,-1.7967,-1.7988,-1.8001,-1.8006,-1.8022,-1.8033,-1.8049,-1.8063,-1.8078,-1.8097,-1.8114,-1.8128,-1.8145,-1.8153,-1.8155,-1.8157,-1.8156,-1.8158,-1.8148,-1.8144,-1.8154,-1.8154,-1.8154,-1.8154,-1.8154,-1.8154,-1.7948,-1.7967,-1.7975,-1.8,-1.8012,-1.803,-1.8039,-1.8051,-1.8063,-1.8085,-1.8099,-1.8108,-1.8122,-1.814,-1.8155,-1.8159,-1.8164,-1.8165,-1.8169,-1.8159,-1.8159,-1.8158,-1.8154,-1.8166,-1.8166,-1.8178,-1.8178,-1.8178]}]]